User: anonymous   Login
Location: Brachstadt
(48.6975°N, 10.6755°E)
Time: 13:04:44
(UTC+00:00)
Language:

SPOT 1/Viking Rocket - Orbit

View from above orbital plane
View from above orbital plane
View from above satellite
View from above satellite

Ground track
Ground track

The orbit data is extracted from the following two-line orbital elements,

1 16615U 86019C   20330.97326225 +.00000048 +00000-0 +33912-4 0  9991
2 16615 098.4593 032.4280 0010693 295.3541 237.5476 14.31816654819399
Epoch (UTC): 25 November 2020 23:21:29
Eccentricity: 0.0010693
inclination: 98.4593°
perigee height: 778 km
apogee height: 793 km
right ascension of ascending node: 32.4280°
argument of perigee: 295.3541°
revolutions per day: 14.31816654
mean anomaly at epoch: 237.5476°
orbit number at epoch: 81939

The dashed part of the orbit path shows where the satellite is in the earth's shadow,  

DLR